Home > Weather > Bayreuth > Past weeks

Flag for Germany Past Weather in Bayreuth, Bavaria, Germany — Yesterday and Last 2 Weeks

Now
77 °F

Scattered clouds.


Feels Like: 79 °F
Forecast: 56 / 85 °F
Wind: 1 mph from North

Location: Grafenwoehr

Current Time: Aug 24, 2016 at 12:36:07 PM

Latest Report: Aug 24, 2016 at 11:58 AM


Visibility: N/A

Pressure: 30.27 "Hg

Humidity: 51%

Dew Point: 57 °F

Location of BayreuthLocation

Past Weather in Bayreuth — Graph

°F

Bayreuth Temperature Yesterday

Maximum temperature yesterday: 79 °F (at 3:58 PM)
Minimum temperature yesterday: 50 °F (at 2:58 AM)
Average temperature yesterday: 64 °F

High & Low Weather Summary for the Past Weeks

 TemperatureHumidityPressure
High80 °F (Aug 20, 3:58 PM)100% (Aug 11, 12:00 AM)30.40 "Hg (Aug 11, 12:00 AM)
Low36 °F (Aug 11, 6:00 AM)25% (Aug 18, 6:58 PM)29.77 "Hg (Aug 18, 4:58 PM)
Average60 °F75%30.11 "Hg
* Reported Aug 9 10:03 AM — Aug 24 10:58 AM, Bayreuth, Weather by CustomWeather, © 2016

Note: Actual official high and low records may vary slightly from our data, if they occured in-between our weather recording intervals... More about our weather records

Advertising

Bayreuth Weather History for the Previous 24 Hours

Scroll right to see more
 ConditionsComfort  
Time TempWeatherWind HumidityBarometerVisibility
10:58 AM
Wed, Aug 24
75 °FSunny.3 mph57%30.28 "HgN/A
9:58 AM70 °FSunny.2 mph69%30.28 "HgN/A
8:58 AM61 °FSunny.2 mph88%30.30 "HgN/A
7:58 AM55 °FSunny.No wind94%30.30 "HgN/A
6:58 AM50 °FClear.No wind94%30.29 "HgN/A
5:58 AM52 °FClear.No wind94%30.28 "HgN/A
4:58 AM52 °FClear.No wind94%30.28 "HgN/A
3:58 AM52 °FClear.No wind100%30.28 "HgN/A
2:58 AM54 °FClear.No wind100%30.28 "HgN/A
1:58 AM55 °FClear.No wind94%30.29 "HgN/A
12:58 AM57 °FClear.No wind94%30.30 "HgN/A
11:58 PM
Tue, Aug 23
57 °FClear.No wind94%30.30 "HgN/A
10:58 PM59 °FClear.No wind94%30.30 "HgN/A
9:58 PM63 °FClear.No wind83%30.30 "HgN/A
8:58 PM66 °FSunny.No wind73%30.30 "HgN/A
7:58 PM73 °FSunny.No wind57%30.29 "HgN/A
6:58 PM77 °FSunny.1 mph42%30.29 "HgN/A
5:58 PM79 °FSunny.2 mph39%30.28 "HgN/A
4:58 PM79 °FSunny.2 mph39%30.30 "HgN/A
3:58 PM79 °FSunny.1 mph42%30.31 "HgN/A
2:58 PM77 °FPassing clouds.5 mph47%30.32 "HgN/A
1:58 PM75 °FPassing clouds.3 mph50%30.33 "HgN/A
12:58 PM73 °FPassing clouds.No wind57%30.34 "HgN/A
Weather by CustomWeather, © 2016

See weather overviewHow to use our weather pages